Orbital Elements at Epoch 2459000.5 (2020-May-31.0) TDB
Reference: JPL 34 (heliocentric ecliptic J2000)
Element | Value | Uncertainty (1-sigma) | Units |
e | .1249919223726167 | 3.4034e-08 | |
a | 3.110389205405217 | 1.8414e-08 | au |
q | 2.721615679294584 | 1.0506e-07 | au |
i | 4.881343434777088 | 4.1942e-06 | deg |
node | 359.686652855062 | 4.5619e-05 | deg |
peri | 253.3484450065163 | 4.9071e-05 | deg |
M | 176.0419350090536 | 1.9732e-05 | deg |
tp | 2458020.707380482036 (2017-Sep-24.20738048) | 0.00010786 | TDB |
period | 2003.643864788961 5.49 | 1.7793e-05 4.871e-08 | d yr |
n | .1796726485811479 | 1.5955e-09 | deg/d |
Q | 3.499162731515851 | 2.0716e-08 | au |
|
| | Orbit Determination Parameters
Additional Information
|